IR1ZYZ-3 Weather Reports


time (UTC)temp
C
wind
direction
speed
KPH
gust
KPH
rain 1hr
cm
rain 24hr
cm
rain mn
cm
humidity
%
barometer
mb
20260508014619 11 0.0 0.0 0.00 0.00 0.00 10 1014.6
20260508013614 11 0.0 0.0 0.00 0.00 0.00 10 1014.8
20260508012609 11 0.0 0.0 0.00 0.00 0.00 10 1014.8
20260508011604 11 0.0 0.0 0.00 0.00 0.00 10 1014.8
20260508010600 11 0.0 0.0 0.00 0.00 0.00 10 1014.9
20260508005555 11 0.0 0.0 0.00 0.00 0.00 10 1015.0
20260508004551 11 0.0 0.0 0.00 0.00 0.00 10 1015.1
20260508003546 11 0.0 0.0 0.00 0.00 0.00 10 1015.3
20260508002542 11 0.0 0.0 0.00 0.00 0.00 10 1015.4
20260508001537 11 0.0 0.0 0.00 0.00 0.00 10 1015.5
20260508000532 11 0.0 0.0 0.00 0.00 0.00 10 1015.7
20260507235528 11 0.0 0.0 0.00 0.00 0.00 10 1015.8
20260507234523 11 0.0 0.0 0.00 0.00 0.00 10 1015.9
20260507233519 11 0.0 0.0 0.00 0.00 0.00 10 1015.8
20260507232514 11 0.0 0.0 0.00 0.00 0.00 10 1015.8
20260507231509 11 0.0 0.0 0.00 0.00 0.00 10 1016.0
20260507230505 11 0.0 0.0 0.00 0.00 0.00 10 1016.0
20260507225500 11 0.0 0.0 0.00 0.00 0.00 10 1016.1
20260507224456 11 0.0 0.0 0.00 0.00 0.00 10 1016.2
20260507223451 11 0.0 0.0 0.00 0.00 0.00 10 1016.3
20260507222446 11 0.0 0.0 0.00 0.00 0.00 10 1016.3
20260507221442 11 0.0 0.0 0.00 0.00 0.00 10 1016.3
20260507220437 11 0.0 0.0 0.00 0.00 0.00 10 1016.2
20260507215432 11 0.0 0.0 0.00 0.00 0.00 10 1016.1
20260507214428 11 0.0 0.0 0.00 0.00 0.00 10 1016.1
20260507213423 11 0.0 0.0 0.00 0.00 0.00 10 1016.0
20260507212418 11 0.0 0.0 0.00 0.00 0.00 10 1016.0
20260507211413 11 0.0 0.0 0.00 0.00 0.00 10 1015.9
20260507210407 11 0.0 0.0 0.00 0.00 0.00 10 1016.0
20260507205402 11 0.0 0.0 0.00 0.00 0.00 10 1015.8
20260507204357 11 0.0 0.0 0.00 0.00 0.00 10 1015.8
20260507203352 11 0.0 0.0 0.00 0.00 0.00 10 1015.7
20260507202346 11 0.0 0.0 0.00 0.00 0.00 10 1015.8
20260507201341 12 0.0 0.0 0.00 0.00 0.00 10 1015.9
20260507200336 12 0.0 0.0 0.00 0.00 0.00 10 1015.8
20260507195331 12 0.0 0.0 0.00 0.00 0.00 10 1015.7
20260507194326 12 0.0 0.0 0.00 0.00 0.00 10 1015.7
20260507193320 12 0.0 0.0 0.00 0.00 0.00 10 1015.6
20260507192315 12 0.0 0.0 0.00 0.00 0.00 10 1015.4
20260507191310 12 0.0 0.0 0.00 0.00 0.00 10 1015.3
20260507190304 12 0.0 0.0 0.00 0.00 0.00 10 1015.2
20260507185259 12 0.0 0.0 0.00 0.00 0.00 10 1015.1
20260507184254 12 0.0 0.0 0.00 0.00 0.00 10 1015.1
20260507183248 12 0.0 0.0 0.00 0.00 0.00 10 1015.0
20260507182243 13 0.0 0.0 0.00 0.00 0.00 10 1014.9
20260507181238 13 0.0 0.0 0.00 0.00 0.00 10 1014.9
20260507180234 14 0.0 0.0 0.00 0.00 0.00 10 1014.8
20260507175228 15 0.0 0.0 0.00 0.00 0.00 10 1014.5
20260507174223 15 0.0 0.0 0.00 0.00 0.00 10 1014.5
20260507173218 15 0.0 0.0 0.00 0.00 0.00 10 1014.5
20260507172213 14 0.0 0.0 0.00 0.00 0.00 10 1014.5
20260507171208 14 0.0 0.0 0.00 0.00 0.00 10 1014.6
20260507170203 15 0.0 0.0 0.00 0.00 0.00 10 1014.6
20260507165158 17 0.0 0.0 0.00 0.00 0.00 85 1014.4
20260507164153 20 0.0 0.0 0.00 0.00 0.00 76 1014.1
20260507163148 21 0.0 0.0 0.00 0.00 0.00 73 1013.8
20260507162143 23 0.0 0.0 0.00 0.00 0.00 63 1013.6
20260507161138 23 0.0 0.0 0.00 0.00 0.00 68 1013.5
20260507160133 21 0.0 0.0 0.00 0.00 0.00 68 1013.8
20260507155127 22 0.0 0.0 0.00 0.00 0.00 70 1013.5
20260507154122 23 0.0 0.0 0.00 0.00 0.00 58 1013.3
20260507153117 22 0.0 0.0 0.00 0.00 0.00 62 1013.5
20260507152112 25 0.0 0.0 0.00 0.00 0.00 55 1013.1
20260507151106 25 0.0 0.0 0.00 0.00 0.00 52 1013.2
20260507145056 25 0.0 0.0 0.00 0.00 0.00 51 1013.2
20260507143045 26 0.0 0.0 0.00 0.00 0.00 55 1013.1
20260507142039 25 0.0 0.0 0.00 0.00 0.00 50 1013.4
20260507141034 27 0.0 0.0 0.00 0.00 0.00 50 1013.2
20260507140029 26 0.0 0.0 0.00 0.00 0.00 50 1013.4
20260507135024 27 0.0 0.0 0.00 0.00 0.00 47 1013.3
20260507134018 26 0.0 0.0 0.00 0.00 0.00 54 1013.5
20260507133013 26 0.0 0.0 0.00 0.00 0.00 59 1013.7
20260507132008 23 0.0 0.0 0.00 0.00 0.00 56 1014.2
20260507131002 26 0.0 0.0 0.00 0.00 0.00 56 1013.8
20260507125958 22 0.0 0.0 0.00 0.00 0.00 65 1014.3
20260507124952 27 0.0 0.0 0.00 0.00 0.00 53 1013.6
20260507123947 28 0.0 0.0 0.00 0.00 0.00 53 1013.5
20260507122942 27 0.0 0.0 0.00 0.00 0.00 55 1013.5
20260507121936 28 0.0 0.0 0.00 0.00 0.00 61 1013.3
20260507120931 27 0.0 0.0 0.00 0.00 0.00 58 1013.3
20260507115926 26 0.0 0.0 0.00 0.00 0.00 62 1013.5
20260507114921 25 0.0 0.0 0.00 0.00 0.00 62 1013.5
20260507113916 26 0.0 0.0 0.00 0.00 0.00 62 1013.5
20260507112911 26 0.0 0.0 0.00 0.00 0.00 66 1013.4
20260507111905 25 0.0 0.0 0.00 0.00 0.00 70 1013.8
20260507110900 25 0.0 0.0 0.00 0.00 0.00 73 1013.9
20260507110859 25 0.0 0.0 0.00 0.00 0.00 73 1013.9
20260507105854 25 0.0 0.0 0.00 0.00 0.00 70 1013.8
20260507104849 24 0.0 0.0 0.00 0.00 0.00 74 1013.9
20260507103844 24 0.0 0.0 0.00 0.00 0.00 75 1014.1
20260507102839 22 0.0 0.0 0.00 0.00 0.00 77 1014.1
20260507101833 22 0.0 0.0 0.00 0.00 0.00 85 1014.1
20260507100828 22 0.0 0.0 0.00 0.00 0.00 84 1014.2
20260507095823 21 0.0 0.0 0.00 0.00 0.00 84 1014.4
20260507093812 21 0.0 0.0 0.00 0.00 0.00 99 1014.3
20260507092807 21 0.0 0.0 0.00 0.00 0.00 94 1014.2
20260507091802 20 0.0 0.0 0.00 0.00 0.00 98 1014.3
20260507090757 20 0.0 0.0 0.00 0.00 0.00 10 1014.2
20260507085752 19 0.0 0.0 0.00 0.00 0.00 10 1014.2
20260507084747 20 0.0 0.0 0.00 0.00 0.00 10 1014.0
20260507083742 19 0.0 0.0 0.00 0.00 0.00 10 1013.9
20260507082737 18 0.0 0.0 0.00 0.00 0.00 10 1013.8
20260507081731 18 0.0 0.0 0.00 0.00 0.00 10 1013.9
20260507080726 17 0.0 0.0 0.00 0.00 0.00 10 1013.9
20260507075721 17 0.0 0.0 0.00 0.00 0.00 10 1014.0
20260507074716 16 0.0 0.0 0.00 0.00 0.00 10 1014.1
20260507073710 16 0.0 0.0 0.00 0.00 0.00 10 1014.1
20260507072705 15 0.0 0.0 0.00 0.00 0.00 10 1014.2
20260507070654 14 0.0 0.0 0.00 0.00 0.00 10 1014.2
20260507065649 13 0.0 0.0 0.00 0.00 0.00 10 1014.1
20260507064644 13 0.0 0.0 0.00 0.00 0.00 10 1014.1
20260507063639 12 0.0 0.0 0.00 0.00 0.00 10 1014.1
20260507062633 12 0.0 0.0 0.00 0.00 0.00 10 1014.0
20260507061628 12 0.0 0.0 0.00 0.00 0.00 10 1014.0
20260507060623 12 0.0 0.0 0.00 0.00 0.00 10 1013.9
20260507055617 11 0.0 0.0 0.00 0.00 0.00 10 1013.9
20260507054612 11 0.0 0.0 0.00 0.00 0.00 10 1013.7
20260507053607 10 0.0 0.0 0.00 0.00 0.00 10 1013.8
20260507052601 10 0.0 0.0 0.00 0.00 0.00 10 1013.6
20260507051556 10 0.0 0.0 0.00 0.00 0.00 10 1013.5
20260507050551 10 0.0 0.0 0.00 0.00 0.00 10 1013.4
20260507045546 10 0.0 0.0 0.00 0.00 0.00 10 1013.3
20260507044541 10 0.0 0.0 0.00 0.00 0.00 10 1013.3
20260507043535 9 0.0 0.0 0.00 0.00 0.00 10 1013.3
20260507042530 9 0.0 0.0 0.00 0.00 0.00 10 1013.2
20260507041525 10 0.0 0.0 0.00 0.00 0.00 10 1013.3
20260507040519 9 0.0 0.0 0.00 0.00 0.00 10 1013.3
20260507035514 10 0.0 0.0 0.00 0.00 0.00 10 1013.2
20260507034509 9 0.0 0.0 0.00 0.00 0.00 10 1013.1
20260507033504 10 0.0 0.0 0.00 0.00 0.00 10 1013.0
20260507032459 10 0.0 0.0 0.00 0.00 0.00 10 1012.8
20260507031453 10 0.0 0.0 0.00 0.00 0.00 10 1012.8
20260507030448 11 0.0 0.0 0.00 0.00 0.00 10 1012.9
20260507025443 10 0.0 0.0 0.00 0.00 0.00 10 1012.9
20260507024438 10 0.0 0.0 0.00 0.00 0.00 10 1012.9
20260507023432 10 0.0 0.0 0.00 0.00 0.00 10 1012.8
20260507022427 10 0.0 0.0 0.00 0.00 0.00 10 1012.7
20260507021422 10 0.0 0.0 0.00 0.00 0.00 10 1012.8
20260507020416 10 0.0 0.0 0.00 0.00 0.00 10 1012.5
20260507015411 10 0.0 0.0 0.00 0.00 0.00 10 1012.4